[[[{"header":{"parameterUnit":"kt","parameterCategory":2,"dx":1,"dy":1,"la1":30.253999710083008,"la2":30.299108505249023,"lo1":-89.0895004272461,"lo2":-89.04439544677734,"nx":28,"ny":28,"refTime":"2022-10-06T21:00:00:Z","depth":0,"parameterNumber":1,"parameterNumberName":"U-component_of_WINDS"},"data":[-1.4402,-1.4305,-1.4234,-1.4089,-1.4001,-1.3888,-1.3824,-1.3734,-1.3643,-1.3498,-1.34,-1.3315,-1.3192,-1.3056,-1.2944,-1.2908,-1.2864,-1.2884,-1.2837,-1.2819,-1.2811,-1.2804,-1.2822,-1.2877,-1.2877,-1.2865,-1.2865,-1.2865,-1.44,-1.4313,-1.4216,-1.4072,-1.3987,-1.3927,-1.3806,-1.3738,-1.3637,-1.3524,-1.3424,-1.3288,-1.317,-1.3036,-1.2908,-1.2858,-1.2818,-1.2828,-1.2828,-1.2809,-1.2788,-1.2809,-1.2862,-1.2862,-1.2862,-1.2862,-1.2862,-1.2862,-1.4377,-1.4321,-1.4193,-1.4085,-1.3993,-1.3896,-1.3829,-1.3726,-1.3627,-1.3487,-1.3417,-1.33,-1.3169,-1.2976,-1.2892,-1.2796,-1.2771,-1.2756,-1.2751,-1.2749,-1.2757,-1.2784,-1.2771,-1.2771,-1.277,-1.277,-1.2769,0,-1.4336,-1.428,-1.418,-1.406,-1.3977,-1.3875,-1.3768,-1.3725,-1.3574,-1.3498,-1.338,-1.3299,-1.3138,-1.3015,-1.2878,-1.279,-1.2712,-1.2696,-1.2685,-1.2716,-1.2764,-1.2736,-1.2703,-1.2695,-1.2694,-1.2694,-1.2693,-1.2693,-1.4305,-1.4248,-1.4077,-1.4017,-1.394,-1.3844,-1.377,-1.3642,-1.3569,-1.3416,-1.3371,-1.3248,-1.3142,-1.2962,-1.2834,-1.2711,-1.2671,-1.2677,-1.2651,-1.2686,-1.2667,-1.2671,-1.2664,-1.2683,-1.2684,-1.2685,-1.2686,0,-1.4294,-1.4174,-1.4061,-1.3894,-1.3851,-1.3797,-1.3651,-1.3588,-1.3492,-1.3391,-1.3359,-1.3207,-1.3091,-1.2961,-1.2801,-1.2736,-1.2641,-1.2606,-1.2686,-1.2671,-1.2662,-1.2664,-1.2655,-1.2646,-1.2591,-1.2592,-1.2592,0,-1.4218,-1.4148,-1.3972,-1.3912,-1.3829,-1.3701,-1.3621,-1.353,-1.3414,-1.3332,-1.3225,-1.315,-1.2996,-1.2902,-1.2806,-1.2705,-1.2675,-1.2618,-1.2592,-1.2626,-1.2633,-1.258,-1.2576,-1.254,-1.254,-1.254,-1.2541,0,-1.4212,-1.4033,-1.3937,-1.3876,-1.3688,-1.3645,-1.3564,-1.3432,-1.3359,-1.3244,-1.3195,-1.307,-1.3,-1.2904,-1.2782,-1.277,-1.2656,-1.2613,-1.2597,-1.26,-1.2575,-1.2577,-1.2606,-1.2541,-1.2541,-1.2541,-1.2541,0,-1.4129,-1.402,-1.3898,-1.3738,-1.3696,-1.3631,-1.35,-1.3415,-1.3282,-1.3218,-1.3126,-1.3036,-1.2938,-1.2905,-1.2767,-1.2786,-1.2723,-1.2659,-1.2656,-1.2635,-1.2601,-1.2631,-1.2675,-1.2673,-1.2623,-1.2623,-1.2624,0,-1.4154,-1.3998,-1.3886,-1.3771,-1.3681,-1.3566,-1.3491,-1.3377,-1.3285,-1.3192,-1.3088,-1.2983,-1.2931,-1.2878,-1.2828,-1.2715,-1.2691,-1.2715,-1.2577,-1.2573,-1.2614,-1.2654,-1.2691,-1.2681,-1.2631,-1.263,-1.2629,0,-1.4157,-1.3928,-1.3916,-1.384,-1.3669,-1.3591,-1.3506,-1.3373,-1.3318,-1.3201,-1.3123,-1.2971,-1.2925,-1.284,-1.2751,-1.2705,-1.2703,-1.266,-1.2655,-1.2671,-1.2623,-1.266,-1.2659,-1.2654,-1.2653,-1.2652,-1.2635,0,-1.4057,-1.3962,-1.3924,-1.3759,-1.3679,-1.36,-1.3462,-1.3395,-1.332,-1.3223,-1.3107,-1.2974,-1.2835,-1.2799,-1.2722,-1.2659,-1.2648,-1.2599,-1.2553,-1.2581,-1.2572,-1.2568,-1.2579,-1.2577,-1.2575,-1.2574,0,0,-1.4109,-1.3969,-1.3846,-1.3758,-1.3682,-1.3561,-1.3488,-1.3399,-1.3221,-1.3171,-1.3146,-1.2911,-1.2803,-1.2675,-1.2674,-1.2617,-1.2592,-1.2586,-1.257,-1.257,-1.257,-1.2562,-1.2561,-1.2571,-1.257,-1.2569,-1.2569,0,-1.4043,-1.3943,-1.3873,-1.3777,-1.3629,-1.3529,-1.3514,-1.3343,-1.3277,-1.3162,-1.3059,-1.2972,-1.2787,-1.2686,-1.261,-1.26,-1.2524,-1.2568,-1.261,-1.2556,-1.2559,-1.2561,-1.2555,-1.2555,-1.2564,-1.2564,-1.2565,0,-1.4019,-1.3896,-1.3848,-1.3671,-1.3571,-1.3479,-1.34,-1.3306,-1.3235,-1.31,-1.2987,-1.2894,-1.2746,-1.2644,-1.2592,-1.2566,-1.2471,-1.2475,-1.2483,-1.2472,-1.2413,-1.2417,-1.242,-1.238,-1.2379,-1.2379,0,0,-1.398,-1.3891,-1.3715,-1.3645,-1.3591,-1.3441,-1.3377,-1.3294,-1.3166,-1.3116,-1.2993,-1.287,-1.276,-1.2691,-1.258,-1.2488,-1.2445,-1.2458,-1.2467,-1.2475,-1.2469,-1.2412,-1.2416,-1.2379,-1.2379,-1.2379,0,0,-1.3959,-1.3754,-1.3701,-1.3603,-1.3488,-1.3307,-1.3268,-1.3197,-1.3083,-1.3076,-1.2927,-1.2887,-1.2789,-1.27,-1.2714,-1.256,-1.2519,-1.2512,-1.2622,-1.263,-1.2639,-1.266,-1.2609,0,0,0,0,0,-1.382,-1.378,-1.3734,-1.3697,-1.3469,-1.3334,-1.3303,-1.3181,-1.3155,-1.3128,-1.3014,-1.2937,-1.2677,-1.2687,-1.265,-1.2633,-1.2377,-1.2377,-1.2378,-1.2497,-1.2508,-1.2517,0,0,0,0,0,0,-1.3804,-1.3759,-1.3735,-1.3555,-1.3502,-1.3334,-1.3263,-1.3228,-1.3155,-1.3143,-1.2962,-1.2931,-1.2822,-1.2697,-1.2666,-1.2652,-1.2619,-1.2377,-1.2377,-1.2378,-1.25,-1.2509,-1.2517,0,0,0,0,0,-1.3791,-1.3754,-1.3421,-1.3554,-1.3508,-1.3337,-1.3263,-1.3234,-1.3174,-1.2997,-1.2964,-1.3089,-1.2825,-1.279,-1.2678,-1.267,-1.264,-1.2629,-1.2377,-1.2378,-1.2378,-1.2505,0,0,0,0,0,0,-1.3781,-1.3725,-1.3409,-1.339,-1.356,-1.3344,-1.3306,-1.3239,-1.303,-1.2998,-1.3117,-1.3109,-1.2827,-1.2799,-1.2773,-1.2683,-1.2657,-1.2645,-1.2638,-1.2378,-1.2378,-1.2378,0,0,0,0,0,0,-1.3743,-1.371,-1.3399,-1.3413,-1.3395,-1.3351,-1.3318,-1.3203,-1.3029,-1.3162,-1.3149,-1.3116,-1.2864,-1.2806,-1.2785,-1.2611,-1.267,-1.2659,-1.2651,-1.2646,-1.2378,-1.2378,0,0,0,0,0,0,-1.3727,-1.3698,-1.3417,-1.3403,-1.3387,-1.3169,-1.3247,-1.3019,-1.3046,-1.3173,-1.3044,-1.3044,-1.2873,-1.2849,-1.2793,-1.2629,-1.2615,-1.2669,-1.2662,-1.2657,-1.2653,0,0,0,0,0,0,0,-1.3714,-1.3937,-1.352,-1.3395,-1.3381,-1.3219,-1.3214,-1.3208,-1.3046,-1.3045,-1.3045,-1.3044,-1.2731,-1.272,-1.2708,-1.2644,0,0,-1.267,-1.2665,0,0,0,0,0,0,0,0,-1.3946,-1.3939,-1.352,-1.3516,-1.3512,-1.3218,-1.3214,-1.321,-1.3046,-1.3045,-1.3045,-1.3044,-1.2728,-1.2719,-1.2709,0,0,0,0,0,0,0,0,0,0,0,0,0,0,0,-1.3519,-1.3516,0,-1.3217,-1.3214,-1.321,-1.3046,-1.3045,-1.3045,-1.3044,-1.2726,-1.2718,-1.271,0,0,0,0,0,0,0,0,0,0,0,0,0,0,0,0,0,0,0,0,0,0,0,0,0,0,0,0,0,0,0,0,0,0,0,0,0,0,0,0,0,0,0,0,0,0,0,0,0,0,0,0,0,0,0,0,0,0,0,0,0,0,0,0,0,0,0,0,0]}],[{"header":{"parameterUnit":"kt","parameterCategory":2,"dx":1,"dy":1,"la1":30.253999710083008,"la2":30.299108505249023,"lo1":-89.0895004272461,"lo2":-89.04439544677734,"nx":28,"ny":28,"refTime":"2022-10-06T21:00:00:Z","depth":0,"parameterNumber":2,"parameterNumberName":"V-component_of_WINDS"},"data":[3.1166,3.116,3.1138,3.112,3.1097,3.1079,3.1066,3.1045,3.1023,3.0996,3.0976,3.0952,3.0918,3.0886,3.0861,3.085,3.084,3.0852,3.0836,3.0805,3.0799,3.0794,3.0794,3.0851,3.0851,3.087,3.087,3.087,3.1137,3.1115,3.1101,3.1072,3.1058,3.1033,3.1007,3.0995,3.098,3.0953,3.0934,3.0908,3.0884,3.0846,3.0818,3.081,3.0795,3.0803,3.0802,3.0796,3.0763,3.0764,3.0816,3.0816,3.0816,3.0816,3.0815,3.0815,3.1078,3.1076,3.1048,3.1032,3.1012,3.0992,3.0985,3.0958,3.0942,3.0914,3.0891,3.0872,3.0839,3.0796,3.0776,3.0757,3.0744,3.0745,3.0745,3.0745,3.0747,3.0714,3.0752,3.0752,3.0752,3.0752,3.0751,0,3.1027,3.101,3.0997,3.0976,3.0963,3.0945,3.0925,3.092,3.0875,3.0864,3.0845,3.083,3.0799,3.0776,3.0746,3.0724,3.0694,3.069,3.0691,3.0699,3.0709,3.0699,3.0642,3.0689,3.0689,3.0688,3.0688,3.0688,3.0961,3.0965,3.0927,3.092,3.0904,3.0894,3.0883,3.0844,3.0834,3.0801,3.08,3.0779,3.076,3.0731,3.0696,3.0672,3.0657,3.0676,3.0653,3.0661,3.0652,3.0651,3.0648,3.0681,3.0682,3.0683,3.0683,0,3.0925,3.0893,3.0892,3.0855,3.0845,3.0849,3.0815,3.0811,3.0786,3.0777,3.0772,3.0731,3.0713,3.0675,3.0647,3.0628,3.0624,3.0612,3.0632,3.0627,3.0637,3.0635,3.0686,3.0688,3.0633,3.0634,3.0634,0,3.0854,3.0861,3.0812,3.0814,3.0818,3.0781,3.0785,3.0764,3.0739,3.0732,3.0695,3.0688,3.0643,3.063,3.0601,3.0592,3.0589,3.0571,3.0563,3.0573,3.0575,3.0564,3.056,3.0551,3.0551,3.0551,3.0551,0,3.0797,3.0783,3.0786,3.0777,3.0739,3.074,3.0724,3.0697,3.0687,3.0669,3.066,3.0641,3.063,3.0613,3.0577,3.0562,3.0568,3.054,3.0549,3.055,3.0551,3.0551,3.0608,3.055,3.055,3.055,3.055,0,3.0735,3.0722,3.0733,3.0699,3.0697,3.0699,3.0678,3.0673,3.0648,3.0631,3.0616,3.0587,3.0582,3.0555,3.0544,3.0534,3.0523,3.0508,3.0508,3.0503,3.0474,3.0506,3.0567,3.057,3.0499,3.0498,3.0498,0,3.0674,3.068,3.065,3.0662,3.0659,3.0618,3.0619,3.06,3.0579,3.057,3.0545,3.0537,3.0511,3.0503,3.0502,3.0475,3.0488,3.0473,3.0453,3.0453,3.0457,3.0514,3.053,3.0558,3.0492,3.0493,3.0493,0,3.0624,3.0584,3.0589,3.0576,3.0549,3.0549,3.0552,3.0537,3.0532,3.0518,3.0516,3.0507,3.0483,3.0473,3.0449,3.045,3.0478,3.0427,3.0425,3.0433,3.0489,3.0504,3.0509,3.046,3.0461,3.0461,3.0489,0,3.0525,3.0528,3.0542,3.0522,3.0518,3.0527,3.0493,3.0491,3.0468,3.0447,3.0447,3.0425,3.0409,3.0409,3.0388,3.0406,3.0396,3.0375,3.0345,3.0384,3.0392,3.0396,3.0336,3.0335,3.0334,3.0333,0,0,3.0472,3.0476,3.0447,3.0452,3.0445,3.0405,3.0417,3.0406,3.0386,3.038,3.0364,3.0348,3.0332,3.0334,3.0344,3.0341,3.0338,3.0328,3.0367,3.0371,3.0375,3.0384,3.0388,3.0332,3.0331,3.0331,3.0331,0,3.0429,3.0421,3.0436,3.0424,3.0405,3.0384,3.0388,3.0362,3.0349,3.0354,3.0318,3.0315,3.0308,3.0292,3.0283,3.0327,3.03,3.0326,3.0359,3.036,3.0365,3.0369,3.0379,3.0384,3.0329,3.0329,3.0329,0,3.037,3.0353,3.0359,3.0349,3.0338,3.0339,3.03,3.0305,3.0304,3.0261,3.0265,3.0249,3.0228,3.0239,3.0243,3.0228,3.0266,3.0252,3.0256,3.0255,3.0254,3.026,3.0266,3.0191,3.0191,3.0191,0,0,3.0336,3.0342,3.0314,3.0338,3.0333,3.0303,3.0302,3.0281,3.0266,3.026,3.024,3.0224,3.0217,3.0215,3.0208,3.0227,3.0217,3.0236,3.0242,3.0248,3.025,3.025,3.0257,3.0189,3.0189,3.0189,0,0,3.0321,3.029,3.0272,3.0297,3.0285,3.0258,3.0272,3.0248,3.024,3.0235,3.0199,3.0193,3.0203,3.019,3.0176,3.0196,3.0168,3.0171,3.0205,3.0213,3.0219,3.0221,3.0133,0,0,0,0,0,3.0262,3.0293,3.0277,3.0277,3.0267,3.0267,3.0265,3.0237,3.0215,3.0226,3.0205,3.0178,3.0173,3.016,3.0159,3.0175,3.0173,3.0176,3.0179,3.0226,3.0235,3.0242,0,0,0,0,0,0,3.0261,3.0262,3.0276,3.0252,3.0249,3.0265,3.0223,3.0216,3.0214,3.0208,3.0183,3.0178,3.0152,3.0159,3.0158,3.0174,3.0133,3.0174,3.0176,3.0179,3.0229,3.0236,3.0242,0,0,0,0,0,3.0261,3.0261,3.0253,3.0251,3.0248,3.0218,3.0222,3.0216,3.0213,3.0182,3.0176,3.0192,3.0154,3.0151,3.0159,3.0175,3.0133,3.0133,3.0176,3.0178,3.0179,3.0233,0,0,0,0,0,0,3.0261,3.0254,3.0252,3.025,3.0238,3.0216,3.0212,3.0215,3.0186,3.018,3.0189,3.0185,3.0155,3.0153,3.0151,3.0176,3.0133,3.0133,3.0133,3.0177,3.0179,3.018,0,0,0,0,0,0,3.0254,3.0253,3.0251,3.0237,3.0233,3.0215,3.0212,3.0215,3.0186,3.0194,3.019,3.0187,3.0157,3.0154,3.0152,3.0159,3.0133,3.0133,3.0133,3.0133,3.0178,3.018,0,0,0,0,0,0,3.0253,3.0252,3.0237,3.0234,3.0231,3.0206,3.0217,3.0208,3.0177,3.0196,3.0173,3.0171,3.0159,3.0157,3.0154,3.0162,3.016,3.0133,3.0133,3.0133,3.0133,0,0,0,0,0,0,0,3.0252,3.0266,3.0264,3.0232,3.0229,3.0232,3.0231,3.0231,3.0176,3.0175,3.0173,3.0172,3.0134,3.0134,3.0134,3.0163,0,0,3.0133,3.0133,0,0,0,0,0,0,0,0,3.0265,3.0266,3.0264,3.0263,3.0263,3.0232,3.0231,3.0231,3.0176,3.0175,3.0174,3.0172,3.0134,3.0134,3.0134,0,0,0,0,0,0,0,0,0,0,0,0,0,0,0,3.0264,3.0263,0,3.0232,3.0231,3.0231,3.0176,3.0175,3.0174,3.0173,3.0134,3.0134,3.0134,0,0,0,0,0,0,0,0,0,0,0,0,0,0,0,0,0,0,0,0,0,0,0,0,0,0,0,0,0,0,0,0,0,0,0,0,0,0,0,0,0,0,0,0,0,0,0,0,0,0,0,0,0,0,0,0,0,0,0,0,0,0,0,0,0,0,0,0,0]}]]]